SCP
0 0 0 0 0 0 0 0 0 0 0 0 0 0 0 0 0 0 0 0 0 0 0 0 0 0 0 0 0 0 0 0 0 0 0 0 0 0 0 0 0 0 0 0
0 0 0 0 0 0 0 0 0 0 0 0 0 0 0 0 0 0 0 0 0 0 0 0 0 0 0 0 0 0 0 0 0 0 0 0 0 0 0 0 0 0 0 0
0 0 0 0 0 0 0 0 0 0 0 0 0 -0 0 0 0 0 0 0 0 0 0 0 0 0 0 0 0 0 0 0 0 0 0 0 0 0 0 0 0 0 0 0
0 0 0 0 0 0 0 0 0 0 0 0 0 -0 0 0 0 0 0 0 0 0 0 0 0 0 0 0 0 0 0 0 0 0 0 0 0 0 0 0 0 0 0 0
0 0 0 0 0 0 0 0 0 0 0 0 0 0 0 0 0 0 0 0 0 0 0 0 0 0 0 0 0 0 0 0 0 0 0 0 0 0 0 0 0 0 0 0
0 0 0 0 0 0 0 0 0 0 0 0 0 0 0 0 0 0 0 0 0 0 0 0 0 0 0 0 0 0 0 0 0 0 0 0 0 0 0 0 0 0 0 0
0 0 0 0 0 0 0 0 0 0 0 0 0 0 0 0 0 0 0 0 0 0 0 0 0 0 0 0 0 0 0 0 0 0 0 0 0 0 0 0 0 0 0 0
0 0 0 0 0 0 0 0 0 0 0 0 0 0 0 0 0 0 0 0 0 0 0 0 0 0 0 0 0 0 0 0 0 0 0 0 0 0 0 0 0 0 0 0
0 0 0 0 0 0 0 0 0 0 0 0 0 0 0 0 0 0 0 0 0 0 0 0 0 0 0 0 0 0 0 0 0 0 0 0 0 0 0 0 0 0 0 0
0 0 0 0 0 0 0 0 0 0 0 0 0 0 0 0 0 0 0 0 0 0 0 0 0 0 0 0 0 0 0 0 0 0 0 0 0 0 0 0 0 0 0 0
0 0 0 0 0 0 0 0 0 0 0 0 0 0 0 0 0 0 0 0 0 -0 -0 0 0 0 0 0 0 0 0 0 0 0 0 0 0 0 0 0 0 0 0 0
0 0 0 0 0 0 0 0 0 0 0 0 0 0 0 0 0 0 0 0 -0 -0 -0 0 0 0 0 0 0 0 0 0 0 0 0 0 0 0 0 0 0 0 0 0
0 0 0 0 0 0 0 0 0 0 0 0 0 0 0 0 0 0 0 0 0 0 0 0 0 0 0 0 0 0 0 0 0 0 0 0 0 0 0 0 0 0 0 0
0 0 0 0 0 0 0 0 0 0 0 0 0 0 0 0 0 0 0 0 0 0 0 0 0 0 -0 0 0 0 0 0 0 0 0 0 0 0 0 0 0 0 0 0
0 0 0 0 0 0 0 0 0 0 0 0 0 0 0 0 0 0 0 0 0 0 0 0 0 0 0 0 0 0 0 0 0 0 0 0 0 0 0 0 0 0 0 0
0 0 0 0 0 0 0 0 0 0 0 0 0 0 0 0 0 0 0 0 0 -0 -0 0 0 0 0 0 0 0 0 0 0 0 0 0 0 0 0 0 0 0 0 0
-0 0 0 0 0 0 0 0 0 0 0 0 0 0 0 0 0 0 0 0 0 0 0 0 0 0 0 0 0 0 0 0 0 0 0 0 0 0 0 0 0 0 0 0
0 0 0 0 -0 0 0 0 0 0 0 0 0 0 0 0 0 0 0 0 0 0 0 0 0 0 0 0 0 0 0 0 0 0 0 0 0 0 0 0 0 0 0 0
0 0 0 0 0 0 0 0 0 0 0 0 0 0 0 0 0 0 0 0 0 0 0 0 0 0 0 0 0 0 0 0 0 0 0 0 0 0 0 0 0 0 0 0
0 0 0 0 0 0 0 0 0 -0 0 0 0 0 0 0 0 0 0 0 0 0 0 0 0 0 0 0 0 0 0 0 0 0 0 0 0 0 0 0 0 0 0 0
0 0 0 0 0 0 0 0 0 -0 0 0 0 0 0 0 0 0 0 0 0 0 0 0 0 0 0 0 0 0 0 0 0 0 0 0 0 0 0 0 0 0 0 0
0 0 0 0 0 0 0 0 0 0 -0 -0 -0 -0 -0 -0 -0 -0 -0 -0 -0 0 0 0 0 0 0 0 0 0 0 0 0 0 0 0 0 0 0 0 0 0 0 0
0 0 0 0 0 -0 -0 -0 -0 -0 -0 -0 -0 -0 -0 -0 -0 -0 -0 -0 -0 -0 -0 -0 -0 0 0 0 0 0 0 0 0 0 0 0 0 0 0 0 0 0 0 0
0 0 0 0 0 0 0 -0 -0 0 -0 -0 -0 -0 -0 -0 -0 -0 -0 -0 -0 -0 -0 -0 -0 -0 -0 -0 -0 0 0 0 0 0 0 0 0 0 0 0 0 0 0 0
0 0 0 0 0 0 0 0 0 -0 0 0 -0 -0 -0 -0 -0 -0 -0 -0 -0 -0 -0 -0 -0 -0 -0 -0 0 0 0 0 0 0 0 0 0 0 0 0 0 0 0 0
0 0 0 0 0 0 0 0 0 0 0 -0 -0 -0 -0 -0 -0 -0 -0 -0 -0 -0 -0 -0 -0 -0 0 0 0 0 0 0 0 0 0 0 0 0 0 0 0 0 0 0
Wind_Speed_500mb
13 9 21 42 34 30 3 12 14 16 11 9 20 35 39 60 46 50 70 86 92 94 107 93 90 89 88 87 90 93 90 88 87 87 84 85 86 85 84 79 72 70 66 63
4 22 35 14 11 18 24 34 43 37 39 14 32 47 35 27 47 62 61 77 94 98 102 105 108 96 86 85 93 99 99 94 89 91 88 89 86 86 84 79 77 75 72 69
31 19 27 24 18 22 26 27 37 35 12 12 22 44 31 24 61 77 84 90 97 98 104 106 102 91 82 79 85 98 100 97 93 90 91 92 87 84 85 88 86 84 78 73
17 26 28 15 17 30 32 26 30 27 5 21 6 51 13 14 29 26 55 78 81 91 99 104 102 90 81 78 78 89 99 98 93 92 92 97 96 92 93 93 92 87 81 77
18 7 11 21 40 20 26 11 12 6 9 9 14 15 8 23 23 26 33 61 82 82 90 92 91 78 67 73 74 80 95 98 94 93 93 94 96 91 90 90 89 86 82 80
24 8 12 19 11 16 3 6 8 8 3 25 24 22 3 12 20 13 21 64 74 74 80 91 88 62 60 65 71 82 95 99 95 96 93 93 92 93 93 92 88 85 85 83
6 13 10 13 7 5 8 10 8 7 1 24 18 18 46 13 12 22 26 55 63 71 79 91 77 47 55 67 74 82 93 100 97 95 92 93 93 91 89 90 87 85 84 89
4 29 17 9 23 18 21 22 13 16 23 37 8 19 23 25 25 46 61 67 77 89 89 82 66 42 55 65 73 81 89 96 97 96 95 95 95 95 91 90 88 85 85 84
11 27 4 10 7 19 8 13 32 3 3 3 13 28 27 13 16 15 32 61 72 82 79 61 51 50 51 55 66 75 85 93 95 96 97 100 99 99 95 91 87 86 85 82
10 23 15 5 5 5 15 8 4 3 6 15 19 13 28 31 27 20 20 32 54 58 57 62 54 52 45 50 59 66 77 87 90 95 98 100 101 102 102 99 94 87 85 82
3 5 37 1 13 24 3 8 9 5 11 28 36 30 56 32 18 15 22 39 37 50 60 44 42 40 41 44 47 55 64 82 90 94 96 99 102 106 106 105 101 97 90 83
10 11 20 50 28 5 9 23 25 23 26 23 33 38 54 63 49 37 52 61 62 58 64 46 37 32 38 38 45 48 55 70 75 86 97 98 100 101 107 107 104 101 96 89
13 6 12 7 19 27 27 44 33 34 36 50 45 42 56 48 48 46 34 59 76 76 67 48 31 35 52 57 59 61 69 75 82 86 91 98 101 100 103 104 103 102 99 92
32 37 35 41 41 21 17 22 44 44 35 47 45 50 46 63 57 63 52 66 70 70 71 79 91 101 75 66 69 71 78 77 77 83 90 96 98 97 98 102 102 100 98 92
17 44 44 48 60 58 60 61 54 51 53 51 53 60 50 56 63 62 53 65 45 61 64 70 79 85 90 83 73 68 71 82 89 89 94 99 95 97 98 100 97 97 96 91
13 13 25 40 44 49 55 59 64 69 73 72 72 67 56 62 79 71 76 75 62 59 58 74 88 84 92 89 94 97 93 92 94 100 100 101 102 99 101 97 96 95 92 89
23 18 22 46 38 36 42 52 65 66 66 57 60 68 52 53 51 51 60 41 49 51 54 54 58 69 80 91 90 84 81 80 90 93 98 101 104 100 97 93 92 92 92 88
38 43 24 37 47 63 48 30 47 62 65 64 44 34 36 38 59 32 47 61 61 65 77 76 76 64 58 57 61 70 70 72 75 80 88 93 94 95 92 89 88 88 90 87
43 39 18 24 40 43 24 14 17 19 5 27 25 29 36 71 62 32 75 73 62 66 75 83 83 75 72 65 60 48 40 50 63 74 78 80 84 85 85 85 85 84 87 89
31 24 26 36 44 50 10 26 48 26 22 43 27 32 37 53 28 28 85 79 81 72 77 86 86 81 74 73 68 60 55 40 40 53 66 70 69 74 78 78 79 80 83 84
8 10 13 25 33 19 25 31 49 14 22 51 33 46 43 26 26 68 76 73 68 61 72 79 81 78 77 71 69 66 54 44 37 37 47 50 54 61 69 71 74 75 78 82
10 8 17 8 9 20 55 42 12 24 39 25 30 34 43 51 68 67 67 72 74 71 71 76 86 86 75 69 67 63 53 46 32 33 37 35 41 52 60 63 67 70 79 81
8 10 6 5 13 45 49 26 54 21 25 28 42 58 53 51 52 54 57 61 69 67 67 68 76 86 87 72 58 59 46 51 49 39 42 42 34 45 53 59 65 72 77 83
9 24 7 10 15 27 53 58 36 39 47 55 53 56 55 46 55 62 68 73 73 78 81 83 83 85 84 73 72 71 61 54 63 60 55 56 61 54 54 58 66 73 80 87
16 4 13 20 33 48 42 45 43 45 42 39 54 60 58 45 70 64 77 89 82 83 81 74 70 83 91 82 81 87 81 70 70 73 75 70 69 71 69 71 74 76 84 90
34 35 24 31 46 39 47 55 47 38 36 53 43 55 71 67 74 73 76 84 84 92 94 95 96 94 93 84 82 86 70 76 72 73 82 85 76 77 79 81 80 80 88 90
Wind_Direction_500mb
185 135 207 222 212 234 206 228 243 256 247 225 230 236 248 265 269 259 264 265 262 260 266 264 261 259 257 251 247 243 238 236 229 225 225 226 229 229 230 231 233 233 234 236
160 214 225 235 210 222 243 257 262 270 265 214 260 259 249 250 262 261 255 263 263 264 270 268 266 266 261 256 251 242 237 236 231 228 228 230 232 232 234 235 235 235 235 235
221 225 216 218 230 241 229 233 253 256 301 249 289 271 251 244 250 262 263 257 263 263 267 268 268 269 265 252 246 243 238 235 230 227 225 228 231 233 233 233 234 234 234 234
238 241 217 189 217 216 257 227 254 261 283 274 126 294 196 231 244 243 253 261 257 264 266 267 268 267 260 257 250 241 236 233 229 228 228 228 230 229 231 233 234 234 233 235
242 209 190 222 234 181 253 167 233 218 215 337 182 266 161 203 250 247 253 254 267 273 272 272 269 266 261 252 248 242 233 231 228 229 231 230 232 234 236 237 236 236 236 236
241 196 189 211 194 206 95 59 37 65 122 265 203 210 97 179 213 241 252 258 265 269 272 274 276 263 252 242 239 238 230 228 227 229 231 232 232 235 235 236 237 236 237 237
312 227 213 181 225 141 132 92 298 320 9 255 191 216 251 274 216 215 238 258 263 270 267 270 274 254 230 230 231 232 229 226 225 229 231 231 232 235 237 238 239 238 236 235
261 290 176 179 201 193 207 189 182 206 253 270 109 249 265 220 238 241 249 264 270 268 271 273 267 246 246 231 233 233 228 226 227 230 231 231 231 234 236 239 239 241 242 241
209 268 166 198 163 153 175 177 233 317 108 5 248 275 287 229 269 310 282 285 275 275 277 272 254 240 244 231 232 235 232 230 230 234 232 232 232 234 235 238 239 241 243 243
279 268 230 152 123 275 186 165 115 184 206 248 268 250 260 284 285 290 295 304 320 322 305 274 251 241 235 237 236 236 235 238 238 237 236 236 237 238 238 239 240 240 244 243
76 325 270 167 211 235 184 247 229 184 197 246 261 264 278 278 274 261 298 299 323 327 317 306 264 248 244 241 245 242 241 241 239 241 241 241 242 242 242 243 244 243 244 245
170 176 238 263 261 301 271 265 242 237 246 235 254 257 263 269 270 272 288 291 295 309 311 285 262 251 251 255 252 255 253 247 247 244 243 244 245 246 246 246 246 246 245 243
182 220 267 261 289 251 233 247 241 255 258 251 254 253 257 269 271 264 245 262 282 292 294 287 271 268 285 278 267 264 265 259 252 244 245 245 247 248 248 248 248 247 245 242
245 249 239 254 264 279 267 224 238 242 255 254 247 260 262 271 265 271 266 269 274 276 280 278 281 288 292 285 273 280 268 255 259 255 253 251 250 251 250 248 247 246 245 240
244 241 235 244 251 254 257 265 259 252 247 250 254 251 248 256 270 276 281 285 276 282 278 280 282 281 284 279 277 279 273 276 271 261 255 252 253 252 249 247 247 245 243 241
313 287 297 283 272 257 250 248 252 261 260 260 261 260 261 260 265 276 279 282 287 280 278 280 276 272 272 273 278 276 273 274 269 260 257 255 251 251 248 246 243 241 239 236
268 273 283 279 288 297 278 259 259 258 261 257 259 257 267 268 263 270 295 0 27 8 4 353 324 303 293 284 283 279 280 278 270 265 258 251 250 249 247 244 240 237 235 232
253 265 258 273 274 269 273 240 239 251 258 266 289 4 5 344 319 342 17 14 357 345 348 347 349 352 343 314 288 279 273 269 267 264 259 254 250 248 244 240 237 235 232 229
230 244 266 257 259 279 284 7 349 337 55 27 360 6 1 354 333 54 8 352 338 334 330 331 335 338 341 339 341 318 294 282 269 264 259 255 249 244 241 236 233 231 228 225
315 296 270 284 281 274 44 4 319 296 220 360 346 2 360 356 345 327 330 326 326 329 331 326 327 330 333 337 337 335 334 312 291 272 261 252 246 244 241 237 233 230 228 228
335 328 271 278 275 275 17 5 341 280 329 325 331 345 339 338 318 310 317 319 322 323 321 321 319 319 322 329 328 326 322 331 324 299 279 267 256 246 241 237 232 229 224 222
285 285 300 327 309 252 4 344 351 289 312 307 333 323 323 319 311 310 306 308 310 312 317 318 315 316 316 316 321 319 319 314 315 316 302 278 267 255 245 237 233 226 224 221
269 199 234 195 255 294 306 297 305 297 325 332 321 317 320 313 306 310 310 310 309 309 314 311 309 310 313 313 309 305 313 310 300 288 289 294 284 263 251 242 234 226 224 223
269 258 220 297 259 271 290 294 279 311 316 310 307 309 315 307 310 313 312 308 307 313 314 312 310 308 307 306 305 298 299 296 294 282 275 274 276 272 257 246 239 235 230 225
234 275 241 268 280 280 282 294 299 307 299 295 303 306 313 310 311 313 311 313 312 310 309 303 299 297 295 296 300 297 294 290 288 284 274 265 258 252 248 245 245 242 239 235
244 250 257 262 274 288 287 295 308 297 301 314 306 302 309 310 308 309 306 307 306 306 306 304 303 300 298 298 288 285 294 293 288 280 276 266 257 252 245 239 235 231 231 228
Wind_Speed_850mb
13 9 21 42 34 30 3 12 14 16 11 9 20 35 39 60 46 50 70 86 92 94 107 93 90 89 88 87 90 93 90 88 87 87 84 85 86 85 84 79 72 70 66 63
4 22 35 14 11 18 24 34 43 37 39 14 32 47 35 27 47 62 61 77 94 98 102 105 108 96 86 85 93 99 99 94 89 91 88 89 86 86 84 79 77 75 72 69
31 19 27 24 18 22 26 27 37 35 12 12 22 44 31 24 61 77 84 90 97 98 104 106 102 91 82 79 85 98 100 97 93 90 91 92 87 84 85 88 86 84 78 73
17 26 28 15 17 30 32 26 30 27 5 21 6 51 13 14 29 26 55 78 81 91 99 104 102 90 81 78 78 89 99 98 93 92 92 97 96 92 93 93 92 87 81 77
18 7 11 21 40 20 26 11 12 6 9 9 14 15 8 23 23 26 33 61 82 82 90 92 91 78 67 73 74 80 95 98 94 93 93 94 96 91 90 90 89 86 82 80
24 8 12 19 11 16 3 6 8 8 3 25 24 22 3 12 20 13 21 64 74 74 80 91 88 62 60 65 71 82 95 99 95 96 93 93 92 93 93 92 88 85 85 83
6 13 10 13 7 5 8 10 8 7 1 24 18 18 46 13 12 22 26 55 63 71 79 91 77 47 55 67 74 82 93 100 97 95 92 93 93 91 89 90 87 85 84 89
4 29 17 9 23 18 21 22 13 16 23 37 8 19 23 25 25 46 61 67 77 89 89 82 66 42 55 65 73 81 89 96 97 96 95 95 95 95 91 90 88 85 85 84
11 27 4 10 7 19 8 13 32 3 3 3 13 28 27 13 16 15 32 61 72 82 79 61 51 50 51 55 66 75 85 93 95 96 97 100 99 99 95 91 87 86 85 82
10 23 15 5 5 5 15 8 4 3 6 15 19 13 28 31 27 20 20 32 54 58 57 62 54 52 45 50 59 66 77 87 90 95 98 100 101 102 102 99 94 87 85 82
3 5 37 1 13 24 3 8 9 5 11 28 36 30 56 32 18 15 22 39 37 50 60 44 42 40 41 44 47 55 64 82 90 94 96 99 102 106 106 105 101 97 90 83
10 11 20 50 28 5 9 23 25 23 26 23 33 38 54 63 49 37 52 61 62 58 64 46 37 32 38 38 45 48 55 70 75 86 97 98 100 101 107 107 104 101 96 89
13 6 12 7 19 27 27 44 33 34 36 50 45 42 56 48 48 46 34 59 76 76 67 48 31 35 52 57 59 61 69 75 82 86 91 98 101 100 103 104 103 102 99 92
32 37 35 41 41 21 17 22 44 44 35 47 45 50 46 63 57 63 52 66 70 70 71 79 91 101 75 66 69 71 78 77 77 83 90 96 98 97 98 102 102 100 98 92
17 44 44 48 60 58 60 61 54 51 53 51 53 60 50 56 63 62 53 65 45 61 64 70 79 85 90 83 73 68 71 82 89 89 94 99 95 97 98 100 97 97 96 91
13 13 25 40 44 49 55 59 64 69 73 72 72 67 56 62 79 71 76 75 62 59 58 74 88 84 92 89 94 97 93 92 94 100 100 101 102 99 101 97 96 95 92 89
23 18 22 46 38 36 42 52 65 66 66 57 60 68 52 53 51 51 60 41 49 51 54 54 58 69 80 91 90 84 81 80 90 93 98 101 104 100 97 93 92 92 92 88
38 43 24 37 47 63 48 30 47 62 65 64 44 34 36 38 59 32 47 61 61 65 77 76 76 64 58 57 61 70 70 72 75 80 88 93 94 95 92 89 88 88 90 87
43 39 18 24 40 43 24 14 17 19 5 27 25 29 36 71 62 32 75 73 62 66 75 83 83 75 72 65 60 48 40 50 63 74 78 80 84 85 85 85 85 84 87 89
31 24 26 36 44 50 10 26 48 26 22 43 27 32 37 53 28 28 85 79 81 72 77 86 86 81 74 73 68 60 55 40 40 53 66 70 69 74 78 78 79 80 83 84
8 10 13 25 33 19 25 31 49 14 22 51 33 46 43 26 26 68 76 73 68 61 72 79 81 78 77 71 69 66 54 44 37 37 47 50 54 61 69 71 74 75 78 82
10 8 17 8 9 20 55 42 12 24 39 25 30 34 43 51 68 67 67 72 74 71 71 76 86 86 75 69 67 63 53 46 32 33 37 35 41 52 60 63 67 70 79 81
8 10 6 5 13 45 49 26 54 21 25 28 42 58 53 51 52 54 57 61 69 67 67 68 76 86 87 72 58 59 46 51 49 39 42 42 34 45 53 59 65 72 77 83
9 24 7 10 15 27 53 58 36 39 47 55 53 56 55 46 55 62 68 73 73 78 81 83 83 85 84 73 72 71 61 54 63 60 55 56 61 54 54 58 66 73 80 87
16 4 13 20 33 48 42 45 43 45 42 39 54 60 58 45 70 64 77 89 82 83 81 74 70 83 91 82 81 87 81 70 70 73 75 70 69 71 69 71 74 76 84 90
34 35 24 31 46 39 47 55 47 38 36 53 43 55 71 67 74 73 76 84 84 92 94 95 96 94 93 84 82 86 70 76 72 73 82 85 76 77 79 81 80 80 88 90
Wind_Direction_850mb
185 135 207 222 212 234 206 228 243 256 247 225 230 236 248 265 269 259 264 265 262 260 266 264 261 259 257 251 247 243 238 236 229 225 225 226 229 229 230 231 233 233 234 236
160 214 225 235 210 222 243 257 262 270 265 214 260 259 249 250 262 261 255 263 263 264 270 268 266 266 261 256 251 242 237 236 231 228 228 230 232 232 234 235 235 235 235 235
221 225 216 218 230 241 229 233 253 256 301 249 289 271 251 244 250 262 263 257 263 263 267 268 268 269 265 252 246 243 238 235 230 227 225 228 231 233 233 233 234 234 234 234
238 241 217 189 217 216 257 227 254 261 283 274 126 294 196 231 244 243 253 261 257 264 266 267 268 267 260 257 250 241 236 233 229 228 228 228 230 229 231 233 234 234 233 235
242 209 190 222 234 181 253 167 233 218 215 337 182 266 161 203 250 247 253 254 267 273 272 272 269 266 261 252 248 242 233 231 228 229 231 230 232 234 236 237 236 236 236 236
241 196 189 211 194 206 95 59 37 65 122 265 203 210 97 179 213 241 252 258 265 269 272 274 276 263 252 242 239 238 230 228 227 229 231 232 232 235 235 236 237 236 237 237
312 227 213 181 225 141 132 92 298 320 9 255 191 216 251 274 216 215 238 258 263 270 267 270 274 254 230 230 231 232 229 226 225 229 231 231 232 235 237 238 239 238 236 235
261 290 176 179 201 193 207 189 182 206 253 270 109 249 265 220 238 241 249 264 270 268 271 273 267 246 246 231 233 233 228 226 227 230 231 231 231 234 236 239 239 241 242 241
209 268 166 198 163 153 175 177 233 317 108 5 248 275 287 229 269 310 282 285 275 275 277 272 254 240 244 231 232 235 232 230 230 234 232 232 232 234 235 238 239 241 243 243
279 268 230 152 123 275 186 165 115 184 206 248 268 250 260 284 285 290 295 304 320 322 305 274 251 241 235 237 236 236 235 238 238 237 236 236 237 238 238 239 240 240 244 243
76 325 270 167 211 235 184 247 229 184 197 246 261 264 278 278 274 261 298 299 323 327 317 306 264 248 244 241 245 242 241 241 239 241 241 241 242 242 242 243 244 243 244 245
170 176 238 263 261 301 271 265 242 237 246 235 254 257 263 269 270 272 288 291 295 309 311 285 262 251 251 255 252 255 253 247 247 244 243 244 245 246 246 246 246 246 245 243
182 220 267 261 289 251 233 247 241 255 258 251 254 253 257 269 271 264 245 262 282 292 294 287 271 268 285 278 267 264 265 259 252 244 245 245 247 248 248 248 248 247 245 242
245 249 239 254 264 279 267 224 238 242 255 254 247 260 262 271 265 271 266 269 274 276 280 278 281 288 292 285 273 280 268 255 259 255 253 251 250 251 250 248 247 246 245 240
244 241 235 244 251 254 257 265 259 252 247 250 254 251 248 256 270 276 281 285 276 282 278 280 282 281 284 279 277 279 273 276 271 261 255 252 253 252 249 247 247 245 243 241
313 287 297 283 272 257 250 248 252 261 260 260 261 260 261 260 265 276 279 282 287 280 278 280 276 272 272 273 278 276 273 274 269 260 257 255 251 251 248 246 243 241 239 236
268 273 283 279 288 297 278 259 259 258 261 257 259 257 267 268 263 270 295 0 27 8 4 353 324 303 293 284 283 279 280 278 270 265 258 251 250 249 247 244 240 237 235 232
253 265 258 273 274 269 273 240 239 251 258 266 289 4 5 344 319 342 17 14 357 345 348 347 349 352 343 314 288 279 273 269 267 264 259 254 250 248 244 240 237 235 232 229
230 244 266 257 259 279 284 7 349 337 55 27 360 6 1 354 333 54 8 352 338 334 330 331 335 338 341 339 341 318 294 282 269 264 259 255 249 244 241 236 233 231 228 225
315 296 270 284 281 274 44 4 319 296 220 360 346 2 360 356 345 327 330 326 326 329 331 326 327 330 333 337 337 335 334 312 291 272 261 252 246 244 241 237 233 230 228 228
335 328 271 278 275 275 17 5 341 280 329 325 331 345 339 338 318 310 317 319 322 323 321 321 319 319 322 329 328 326 322 331 324 299 279 267 256 246 241 237 232 229 224 222
285 285 300 327 309 252 4 344 351 289 312 307 333 323 323 319 311 310 306 308 310 312 317 318 315 316 316 316 321 319 319 314 315 316 302 278 267 255 245 237 233 226 224 221
269 199 234 195 255 294 306 297 305 297 325 332 321 317 320 313 306 310 310 310 309 309 314 311 309 310 313 313 309 305 313 310 300 288 289 294 284 263 251 242 234 226 224 223
269 258 220 297 259 271 290 294 279 311 316 310 307 309 315 307 310 313 312 308 307 313 314 312 310 308 307 306 305 298 299 296 294 282 275 274 276 272 257 246 239 235 230 225
234 275 241 268 280 280 282 294 299 307 299 295 303 306 313 310 311 313 311 313 312 310 309 303 299 297 295 296 300 297 294 290 288 284 274 265 258 252 248 245 245 242 239 235
244 250 257 262 274 288 287 295 308 297 301 314 306 302 309 310 308 309 306 307 306 306 306 304 303 300 298 298 288 285 294 293 288 280 276 266 257 252 245 239 235 231 231 228